Home > Weather > Appleton > Past weeks

Flag for USA Past Weather in Appleton, Wisconsin, USA — Yesterday and Last 2 Weeks

Now
66 °F

Broken clouds.


Feels Like: 66 °F
Forecast: 62 / 74 °F
Wind: 12 mph from Southwest

Location: Appleton / Outagamie

Current Time: May 29, 2016 at 8:32:26 AM

Latest Report: May 29, 2016 at 7:45 AM


Visibility: 10 mi

Pressure: 29.87 "Hg

Humidity: 78%

Dew Point: 59 °F

Location of AppletonLocation

Past Weather in Appleton — Graph

°F

Appleton Temperature Yesterday

Maximum temperature yesterday: 81 °F (at 4:45 PM)
Minimum temperature yesterday: 63 °F (at 11:15 PM)
Average temperature yesterday: 69 °F

High & Low Weather Summary for the Past Weeks

 TemperatureHumidityPressure
High82 °F (May 23, 2:45 PM)100% (May 25, 6:02 AM)30.29 "Hg (May 25, 6:02 AM)
Low30 °F (May 15, 2:55 AM)17% (May 21, 4:45 PM)29.78 "Hg (May 28, 1:35 AM)
Average58 °F61%30.01 "Hg
* Reported May 14 6:45 AM — May 29 6:45 AM, Appleton, Weather by CustomWeather, © 2016

Note: Actual official high and low records may vary slightly from our data, if they occured in-between our weather recording intervals... More about our weather records

Advertising

Appleton Weather History for the Previous 24 Hours

Scroll right to see more
 ConditionsComfort  
Time TempWeatherWind HumidityBarometerVisibility
6:45 AM
Sun, May 29
64 °FScattered clouds.8 mph94%29.87 "Hg10 mi
5:45 AM63 °FPassing clouds.8 mph100%29.86 "Hg10 mi
5:15 AM63 °FClear.8 mph94%29.85 "Hg10 mi
4:55 AM63 °FClear.7 mph94%29.85 "Hg10 mi
4:35 AM63 °FClear.7 mph94%29.84 "Hg10 mi
4:15 AM63 °FClear.7 mph100%29.84 "Hg10 mi
3:55 AM63 °FClear.7 mph100%29.84 "Hg10 mi
3:35 AM63 °FClear.8 mph100%29.84 "Hg10 mi
3:15 AM63 °FClear.10 mph100%29.84 "Hg10 mi
2:55 AM63 °FClear.10 mph100%29.84 "Hg10 mi
2:35 AM63 °FClear.9 mph100%29.84 "Hg10 mi
2:15 AM63 °FClear.9 mph100%29.84 "Hg10 mi
1:55 AM63 °FPassing clouds.9 mph100%29.85 "Hg10 mi
1:35 AM64 °FPassing clouds.7 mph94%29.85 "Hg10 mi
1:15 AM64 °FClear.12 mph94%29.86 "Hg10 mi
12:55 AM64 °FClear.10 mph94%29.86 "Hg10 mi
12:35 AM64 °FPassing clouds.12 mph94%29.87 "Hg10 mi
12:15 AM63 °FPassing clouds.9 mph100%29.87 "Hg10 mi
11:55 PM
Sat, May 28
63 °FClear.12 mph100%29.86 "Hg10 mi
11:15 PM63 °FClear.13 mph100%29.87 "Hg10 mi
10:45 PM64 °FPassing clouds.12 mph94%29.86 "Hg10 mi
9:45 PM64 °FPartly cloudy.8 mph94%29.85 "Hg10 mi
8:45 PM64 °FBroken clouds.13 mph83%29.84 "Hg10 mi
7:55 PM73 °FBroken clouds.8 mph65%29.80 "Hg10 mi
5:45 PM81 °FBroken clouds.20 mph48%29.79 "Hg10 mi
4:45 PM81 °FBroken clouds.20 mph48%29.80 "Hg10 mi
3:45 PM79 °FBroken clouds.16 mph54%29.80 "Hg10 mi
2:45 PM79 °FBroken clouds.13 mph61%29.81 "Hg10 mi
1:45 PM75 °FPartly sunny.16 mph65%29.82 "Hg10 mi
12:45 PM75 °FPartly sunny.17 mph65%29.81 "Hg10 mi
11:45 AM73 °FMostly cloudy.17 mph69%29.81 "Hg10 mi
10:45 AM72 °FCloudy.17 mph78%29.80 "Hg10 mi
9:45 AM70 °FMostly cloudy.13 mph83%29.79 "Hg10 mi
8:45 AM70 °FMostly cloudy.14 mph88%29.79 "Hg10 mi
Weather by CustomWeather, © 2016

See weather overviewHow to use our weather pages